Theta_e
314 313 313 314 313 317 324 321 321 322 323 326 322 322 326 328 330 337 344 340 339 338 336 337 336 337 339 340 340 339 338 340 339 341 345 339 336 338 338 337 337 335 334 335 336 336 335 335 335 333 330 331 330 329 329 329 325 324 325 324 322 321 319 318 318 318 320 321 324 327 329 331 331 332 332 332 332 332 332 332 332 331 331 332 334 334 335 336 336 336 336 334 332 332 334 332 332
313 313 313 313 314 321 323 320 325 324 322 325 322 326 332 333 338 341 341 341 340 337 335 335 335 336 336 336 336 337 338 337 336 337 338 336 337 338 337 337 335 333 334 335 334 334 334 333 332 330 329 329 328 327 327 326 323 323 323 323 322 320 319 319 318 318 318 319 322 325 329 329 330 331 332 332 332 332 332 332 333 333 332 332 333 335 336 336 335 334 333 331 331 334 334 333 333
312 314 315 316 318 321 323 322 325 326 322 325 326 330 335 337 339 338 336 339 338 336 336 335 335 335 335 336 336 337 338 337 336 337 336 336 337 337 338 336 335 334 333 333 334 334 331 327 326 326 325 325 325 324 322 322 323 322 322 323 322 322 322 321 319 319 319 319 321 323 326 327 329 330 331 332 332 332 331 332 332 333 333 333 334 335 335 335 333 334 333 331 331 333 334 334 334
312 316 320 321 321 322 329 326 325 330 325 325 333 335 336 338 337 336 335 337 337 336 336 334 335 335 336 338 337 336 337 337 336 336 336 336 336 337 336 335 334 333 332 333 332 329 325 323 322 322 323 323 324 323 321 321 322 322 322 321 320 321 321 321 319 320 320 321 321 322 323 325 327 328 330 331 331 332 331 331 331 332 332 333 334 333 332 333 334 334 333 331 330 332 333 333 335
314 319 322 322 323 324 329 327 327 338 331 327 340 340 339 339 339 338 335 337 336 336 336 334 336 336 335 337 336 336 337 337 336 335 335 335 335 334 334 334 333 332 332 330 326 322 320 320 320 320 321 322 323 322 321 320 320 319 319 317 316 317 317 318 319 320 322 321 322 321 322 324 325 326 327 329 330 331 330 330 330 331 331 332 333 332 331 333 335 335 332 331 331 332 333 333 334
317 322 323 323 323 321 328 334 335 342 337 331 342 345 341 338 338 337 333 335 335 335 335 334 336 336 335 335 336 336 336 336 336 336 335 334 334 333 334 333 332 332 329 324 321 320 319 319 319 319 319 320 320 319 318 317 317 317 316 316 315 315 315 316 318 319 321 321 322 321 322 322 324 324 325 326 328 329 329 330 330 330 331 331 331 331 330 333 335 334 332 331 332 333 333 333 334
321 323 324 323 322 323 332 341 340 342 338 332 341 347 340 334 333 334 333 335 336 334 335 334 334 336 337 336 336 336 336 337 336 335 335 334 334 333 333 332 332 329 324 320 320 320 319 317 317 317 317 317 316 316 315 315 316 316 316 316 316 316 315 315 316 318 319 320 320 321 321 321 322 323 324 326 326 327 329 329 330 330 331 330 331 331 330 331 334 334 332 332 333 333 333 333 334
323 322 322 324 324 328 336 339 338 340 337 331 336 339 335 333 331 334 336 336 338 335 335 335 333 337 338 334 336 336 336 337 336 335 335 334 334 333 332 331 328 324 321 320 319 318 317 316 316 316 316 316 317 317 317 317 317 317 318 318 319 319 318 317 318 318 318 318 318 319 320 321 322 323 323 325 326 326 328 329 330 330 330 330 330 331 329 329 333 334 332 332 332 333 333 333 334
321 320 319 322 326 332 336 336 336 336 336 333 332 333 333 334 331 334 338 336 337 335 335 335 334 338 337 334 336 336 336 336 336 335 334 334 333 332 329 325 322 321 320 319 318 317 316 315 317 318 318 319 321 321 321 321 321 321 320 321 321 322 324 323 322 323 323 321 321 322 323 323 323 323 323 324 325 326 327 327 328 329 328 330 330 331 331 329 331 333 333 332 332 333 332 332 333
318 318 318 324 330 334 336 335 337 338 337 335 332 331 331 332 332 332 337 337 336 335 335 335 334 336 336 335 335 336 337 335 335 334 333 334 331 327 323 321 321 320 319 319 320 319 317 320 323 324 324 323 323 322 322 322 322 322 322 322 323 325 327 327 326 326 326 326 326 326 326 326 326 326 325 324 325 326 326 325 326 327 327 329 329 330 331 330 330 332 333 332 331 331 330 332 333
318 317 319 333 338 336 338 337 338 339 338 336 333 331 330 332 332 331 335 336 335 334 334 335 334 335 334 334 334 335 336 335 334 334 334 332 326 322 320 320 320 319 319 322 323 320 320 325 327 327 326 325 324 322 321 321 320 321 321 323 324 326 328 327 327 327 327 328 328 328 327 328 329 329 328 326 326 326 326 325 324 325 326 328 328 328 329 330 330 330 331 332 331 328 328 332 333
318 320 333 343 338 335 338 337 336 337 339 339 335 331 331 331 332 333 335 336 334 334 334 334 334 334 334 334 334 334 336 335 333 334 333 326 321 320 320 320 320 320 323 324 323 322 324 327 327 327 327 326 324 323 322 323 323 322 322 325 327 327 328 327 327 328 327 328 328 329 328 328 330 330 329 328 327 327 326 326 324 324 326 327 328 327 328 330 329 329 330 332 332 329 329 332 332
317 323 344 340 329 333 336 336 336 336 338 339 335 331 332 331 332 334 334 335 334 335 335 333 333 333 334 334 333 334 336 335 334 333 327 322 322 322 322 323 323 324 325 324 324 325 326 327 327 327 326 325 324 324 323 325 325 323 323 324 326 328 329 328 327 327 326 325 325 327 328 328 329 330 329 329 328 327 327 326 326 326 326 327 328 328 327 329 329 329 329 330 331 331 331 331 330
317 321 340 336 328 335 334 336 337 336 338 337 332 331 333 333 333 333 334 336 335 335 334 333 333 333 334 334 334 334 335 335 333 328 323 325 326 326 325 325 326 327 325 323 323 324 325 327 327 326 325 325 324 324 324 324 324 323 323 322 322 325 327 326 324 323 322 321 322 324 326 327 328 330 329 329 328 328 327 326 326 326 326 326 328 328 327 327 328 329 329 329 330 330 331 331 330
319 321 337 338 333 334 332 334 338 339 338 334 332 332 334 334 333 333 334 337 336 334 333 333 333 334 335 334 334 334 334 333 329 323 325 329 329 328 328 327 329 328 324 321 321 322 324 325 325 324 324 323 322 322 322 322 321 322 323 323 322 322 322 322 320 319 318 318 317 318 322 325 327 329 329 329 328 328 327 326 327 327 326 326 326 327 328 327 327 327 328 329 329 329 330 330 329
319 324 339 340 333 332 330 333 337 339 335 332 333 333 336 335 333 334 334 336 335 334 334 333 333 334 333 332 334 333 332 329 326 326 329 330 329 329 328 328 328 325 323 323 323 323 322 323 322 322 321 321 321 321 319 317 316 317 320 322 321 321 321 320 319 318 317 316 315 315 317 322 325 327 329 329 329 328 327 326 326 327 326 326 326 327 327 327 328 327 326 327 329 329 329 329 328
318 327 341 339 334 333 332 335 336 337 335 333 333 332 339 338 333 334 334 335 335 334 334 334 334 333 332 332 333 331 329 327 328 330 330 330 329 328 328 328 327 325 327 326 325 323 323 322 322 321 321 321 321 319 317 314 312 313 315 317 318 319 319 318 317 316 315 315 315 316 316 317 321 326 328 328 329 329 329 328 328 327 327 327 327 328 326 326 328 327 326 327 328 329 330 330 328
325 335 339 332 334 335 333 336 334 333 336 334 333 331 337 339 335 333 334 334 334 333 333 333 333 332 332 332 331 330 329 329 330 330 330 330 330 329 328 328 328 329 328 327 325 324 323 323 323 322 322 321 319 317 314 312 311 310 310 311 313 314 314 313 313 312 311 310 311 313 314 315 317 322 326 328 328 329 329 329 329 329 328 328 327 328 326 325 327 327 328 329 329 328 328 330 329
331 339 338 331 335 334 329 333 330 331 334 332 333 332 334 337 334 333 334 333 332 332 332 332 332 333 332 332 331 329 329 330 330 330 331 330 329 328 327 327 328 328 326 326 324 323 324 323 323 322 322 321 318 315 314 312 311 310 310 311 312 313 312 312 312 312 310 308 308 309 312 314 316 319 323 327 328 329 329 329 329 329 329 329 328 328 327 326 325 326 327 328 329 328 326 328 329
326 334 338 333 336 333 328 329 329 329 331 332 333 332 333 334 333 333 333 333 331 331 332 332 332 333 333 332 331 330 330 329 329 330 330 329 328 327 327 327 325 324 323 323 321 320 322 322 322 322 321 321 317 315 315 313 312 312 313 315 315 315 314 314 313 313 311 309 308 309 312 314 316 320 323 326 328 329 329 328 328 329 329 328 329 329 328 328 325 325 326 326 326 327 326 327 328
326 334 337 329 332 334 328 327 328 329 331 332 332 332 333 333 333 332 332 334 334 331 332 332 332 333 332 332 330 330 330 329 328 329 329 328 328 327 327 326 323 321 320 319 319 319 321 320 320 320 320 319 317 316 316 315 314 314 316 317 317 316 316 315 314 314 312 309 308 309 311 313 315 321 326 326 327 328 328 328 328 328 328 328 328 328 329 328 327 326 325 326 326 325 325 326 327
329 333 332 328 330 331 328 328 329 330 331 331 331 333 334 332 333 331 331 334 334 331 331 332 332 332 331 330 330 329 328 328 329 328 329 329 328 327 327 326 322 321 319 318 318 318 319 318 318 318 317 318 317 316 317 317 316 316 317 318 318 317 317 317 317 316 313 310 309 309 310 312 314 320 326 325 326 327 327 328 327 327 327 327 328 328 328 328 328 327 326 326 326 326 325 325 326
331 330 327 328 328 328 328 328 329 330 330 330 330 332 332 332 333 332 332 333 333 332 332 332 332 331 330 329 329 328 328 328 329 329 329 329 328 327 327 326 325 323 321 319 318 318 318 317 317 316 315 316 317 317 317 318 317 318 319 319 319 319 318 318 318 318 315 311 310 310 311 311 312 318 324 324 324 326 327 327 327 327 326 326 327 327 328 328 328 327 327 327 327 327 326 326 325
333 331 327 329 327 327 329 329 330 330 330 331 330 332 331 333 335 334 333 333 333 333 332 331 331 330 329 329 329 329 329 329 329 329 329 328 328 327 328 327 327 326 324 321 319 318 317 317 316 315 316 317 317 317 317 317 317 318 320 320 319 320 319 319 319 319 316 312 311 312 312 313 313 316 321 324 324 326 327 327 327 326 326 326 326 327 327 327 327 327 327 327 326 326 326 326 326
332 332 327 327 328 327 330 329 330 330 331 331 331 332 331 333 334 332 333 333 333 333 331 330 330 329 329 329 330 329 329 329 329 329 328 328 328 327 327 328 327 327 326 323 321 319 318 317 317 317 317 318 318 317 317 317 318 319 320 320 320 320 320 319 320 319 317 313 313 313 313 315 316 317 320 322 324 325 326 326 326 326 325 325 325 325 327 327 327 327 327 327 326 326 326 326 325
329 329 327 327 328 328 330 331 330 330 331 330 332 333 332 331 331 331 333 334 333 332 330 329 328 328 329 329 329 329 328 328 329 328 328 327 328 327 327 327 327 327 326 325 323 321 319 317 317 317 318 319 318 318 317 318 319 320 321 320 320 320 320 320 320 320 317 314 314 315 316 318 319 320 321 323 324 325 326 325 325 325 325 324 324 324 326 327 327 327 327 327 327 327 327 326 326
327 327 326 327 327 328 330 330 330 331 330 328 334 336 332 330 332 332 332 333 333 331 330 329 328 328 328 329 328 328 328 328 328 327 327 327 327 327 327 327 327 327 326 325 325 323 320 318 318 317 319 321 319 319 318 318 320 321 322 321 320 321 320 320 320 320 318 315 314 316 318 320 321 322 323 323 323 324 325 324 325 325 324 324 323 324 325 326 326 326 327 328 328 328 327 327 326
326 327 326 326 326 327 329 330 329 330 330 328 333 336 331 330 333 332 330 332 332 331 331 330 329 329 329 329 329 328 328 329 328 327 327 327 327 327 326 326 326 326 326 325 326 324 321 320 320 317 319 321 319 319 318 318 320 321 322 322 321 321 320 320 320 320 319 316 315 316 318 320 321 322 323 322 323 324 324 324 324 323 323 323 323 324 325 326 326 326 327 327 327 327 327 327 327
326 328 331 331 331 330 327 329 329 329 332 330 330 333 332 333 332 330 330 331 332 331 332 331 330 330 330 330 330 329 329 329 328 327 327 327 326 326 325 325 325 326 326 326 326 324 323 323 322 319 318 320 320 318 317 318 320 322 322 322 321 321 321 320 320 320 320 317 315 317 318 319 320 321 321 322 322 323 322 323 323 322 322 322 322 323 326 326 326 327 327 327 327 327 326 326 327
327 328 334 339 337 333 326 328 329 328 331 330 329 329 333 338 331 328 331 330 331 332 332 332 331 331 330 330 330 330 329 329 328 327 327 327 326 326 325 326 326 326 326 326 325 324 325 324 323 321 319 321 321 318 318 318 321 322 323 323 322 322 321 321 320 320 320 317 315 317 319 319 319 320 321 321 321 321 321 321 321 321 321 322 321 323 325 326 326 326 327 327 327 326 326 326 326
332 328 335 338 331 334 330 326 328 329 330 330 331 331 336 342 333 329 332 331 331 331 331 331 331 331 331 330 330 330 329 329 328 327 328 328 327 326 326 326 326 326 326 325 325 325 325 325 324 324 322 322 320 318 319 319 321 323 323 323 322 322 322 321 320 320 320 318 315 316 319 319 319 319 320 320 320 320 320 320 320 321 321 322 322 323 325 325 325 325 326 326 326 326 326 325 324
337 330 337 336 328 337 334 324 328 331 330 329 330 331 336 339 331 329 332 331 332 330 330 330 329 330 330 330 329 329 328 328 328 327 328 328 327 327 326 326 325 325 325 325 325 325 325 325 325 325 325 324 320 318 320 321 323 323 323 324 322 322 322 322 321 320 320 319 314 315 318 320 319 319 319 319 319 319 319 319 320 321 322 323 323 324 324 325 325 324 324 324 324 324 323 323 323
340 330 333 335 329 335 332 325 327 328 331 329 326 329 337 334 325 328 333 332 332 331 330 329 328 328 327 328 329 328 327 326 326 326 327 327 327 327 326 325 324 324 324 325 325 325 325 325 325 326 325 325 322 320 321 322 323 323 324 324 323 322 322 323 321 320 320 319 315 313 315 318 319 319 320 320 319 318 318 319 321 322 322 323 323 323 324 323 324 323 323 323 322 322 321 321 321
342 330 329 333 329 330 332 330 326 326 333 334 327 328 336 333 325 329 333 332 332 332 331 330 328 327 326 326 327 327 326 325 325 325 325 326 327 327 326 325 325 325 325 325 325 325 325 326 326 327 326 325 324 323 322 323 324 324 324 323 323 323 323 323 321 320 321 320 317 314 314 315 316 317 318 319 320 318 318 319 320 321 321 321 322 323 323 323 323 323 323 322 321 321 320 320 320
341 334 331 332 327 326 331 331 327 328 333 333 330 329 334 332 327 329 332 332 333 332 332 331 330 329 327 326 326 326 326 325 326 326 325 325 327 327 327 327 327 326 326 325 326 326 326 326 327 327 326 326 325 324 323 323 323 323 324 323 323 323 323 323 322 321 321 320 318 316 315 314 315 315 316 317 319 318 318 319 319 320 320 320 320 321 322 322 322 322 321 321 321 320 320 320 320
337 335 335 335 328 325 329 329 327 328 331 331 331 332 335 334 331 330 332 332 332 332 332 331 331 330 329 328 327 326 325 326 327 326 326 326 327 328 328 328 328 327 326 327 327 327 327 327 328 327 327 326 326 325 324 323 323 322 323 323 323 323 323 322 323 321 321 321 320 317 316 315 315 315 315 316 317 318 318 318 319 319 319 319 318 319 319 320 320 320 320 320 320 320 320 320 320
330 330 332 331 327 328 330 327 324 327 331 332 330 330 331 334 334 329 330 333 332 332 332 331 332 331 330 328 327 327 327 327 328 328 327 327 327 327 328 329 329 328 328 328 328 328 328 328 328 327 326 326 325 325 324 324 323 322 322 323 322 322 322 322 323 322 321 321 321 319 317 316 316 316 315 316 316 318 318 318 318 318 318 318 317 317 317 317 318 317 318 318 318 319 319 319 319
329 330 329 327 328 330 328 324 325 326 331 332 328 328 329 331 333 329 328 332 332 331 331 331 331 330 330 328 327 327 327 327 328 328 328 328 328 328 329 329 329 329 328 328 329 329 328 328 327 326 326 325 325 324 324 324 323 323 322 322 322 321 322 322 322 322 321 321 321 320 318 317 316 316 316 315 315 316 318 319 318 318 318 317 317 316 315 315 315 315 315 315 317 317 318 318 318
327 328 327 327 328 327 324 323 325 325 328 333 329 327 331 334 333 329 328 331 331 330 331 331 330 330 329 328 328 327 327 327 327 328 329 329 329 329 329 330 329 329 329 329 330 329 329 328 326 325 325 325 324 324 324 324 324 323 322 322 322 321 321 321 321 322 322 322 322 321 320 318 318 317 316 316 315 315 317 318 318 318 318 318 317 316 315 314 313 313 313 314 316 318 318 318 318
326 326 326 329 327 324 326 323 323 325 325 329 331 330 337 340 335 330 326 328 330 329 330 330 329 329 329 328 328 327 327 326 326 327 328 329 329 329 330 329 329 329 329 329 330 329 328 328 327 324 324 324 324 324 324 324 323 322 321 321 321 321 321 321 321 322 322 322 322 322 320 319 319 317 316 316 315 314 315 317 318 319 319 318 317 316 315 313 313 313 312 313 316 317 318 318 319
324 323 325 329 325 323 327 325 324 325 324 328 334 337 343 344 339 334 328 324 328 329 328 329 329 329 330 329 328 327 327 326 326 325 326 328 328 329 330 329 329 329 328 330 330 330 329 328 327 325 323 323 323 323 323 323 322 321 321 321 321 321 321 321 321 322 322 322 322 322 321 320 320 319 317 317 315 313 313 315 317 318 318 318 317 316 314 313 313 313 313 314 316 317 318 318 319
323 323 325 325 325 326 325 326 326 326 327 330 332 334 340 345 339 336 333 327 328 327 325 327 329 329 329 329 328 327 327 327 326 325 325 327 328 328 329 329 329 329 329 330 330 329 328 328 327 325 324 323 322 322 322 321 321 321 321 321 320 320 320 321 322 323 323 322 322 322 322 321 320 320 318 317 316 314 313 314 315 316 317 317 316 314 313 312 313 313 313 314 315 316 317 317 318
323 324 325 321 325 329 324 325 330 330 329 329 331 331 333 341 338 332 332 332 331 329 325 325 326 327 328 327 328 327 326 327 326 325 325 326 327 328 329 329 330 330 330 331 331 329 327 326 326 325 324 323 322 322 322 321 322 321 322 322 321 320 320 322 323 324 324 323 323 322 322 321 320 320 319 317 317 315 314 313 314 314 316 316 314 314 313 312 312 312 313 313 314 315 315 316 317
323 321 320 321 325 328 325 326 331 333 329 326 332 334 330 338 340 330 330 332 332 333 329 326 325 326 328 326 327 327 326 327 326 325 326 325 327 328 328 330 330 331 331 331 330 328 327 327 328 327 326 325 323 322 322 322 323 323 323 323 323 322 322 323 324 324 324 324 324 323 322 322 321 320 320 318 317 316 314 313 312 313 314 314 313 313 313 312 312 312 313 313 314 314 314 315 316
324 319 317 321 324 326 323 324 332 333 327 325 330 330 327 339 345 333 329 330 331 335 334 328 324 325 327 326 327 327 326 327 327 325 326 326 326 327 329 330 330 331 331 330 330 329 329 330 329 328 328 327 325 324 324 323 323 324 324 324 324 324 323 323 324 324 324 324 324 323 322 322 321 321 321 319 318 317 315 313 312 312 312 313 313 313 313 313 312 312 312 313 313 314 314 314 315
319 316 320 323 323 327 324 325 332 328 324 327 329 327 325 337 346 335 328 332 334 335 334 328 323 324 327 326 327 328 327 327 327 326 326 325 326 327 329 330 331 332 332 331 331 331 331 330 329 328 328 328 327 325 325 325 325 325 324 325 324 325 324 324 324 324 324 323 323 323 323 322 322 322 322 321 319 318 315 314 313 312 312 312 312 312 313 314 313 312 312 312 312 313 314 314 314
314 318 326 325 326 332 332 334 334 325 328 331 326 328 327 331 343 339 331 336 337 333 333 330 324 324 327 326 327 327 327 327 327 327 326 325 325 327 329 330 331 332 332 332 331 331 331 330 328 327 328 328 326 325 325 325 325 325 325 325 325 325 325 324 324 323 323 323 323 323 323 322 322 322 322 322 321 319 316 314 314 313 313 313 312 312 312 313 313 313 312 312 312 312 313 313 313
318 328 331 324 326 329 329 334 330 323 329 329 324 328 327 325 335 339 334 335 332 330 334 335 326 323 326 325 326 327 327 328 327 327 327 325 324 326 328 329 330 331 331 330 330 330 330 329 327 327 327 328 327 326 325 325 325 325 325 325 325 325 325 324 324 323 322 322 322 322 322 322 322 322 322 322 321 320 317 315 314 314 313 313 313 312 312 312 313 313 312 312 312 312 312 312 312
327 339 338 329 327 325 325 329 325 321 323 322 323 326 324 330 335 333 333 330 327 325 326 327 324 322 326 325 325 326 326 327 327 327 327 325 324 324 325 327 327 327 326 326 326 327 327 327 326 326 326 327 328 327 327 326 326 325 325 325 324 324 324 324 324 323 322 322 322 321 321 321 321 321 321 321 321 320 317 315 315 314 314 313 313 313 313 312 312 313 313 313 313 313 312 312 313
326 335 334 328 328 323 322 325 322 321 323 321 322 323 324 332 330 326 329 325 320 321 320 322 322 322 324 324 324 325 325 326 327 327 326 325 325 324 323 324 324 324 323 323 324 325 326 327 326 325 325 327 328 327 327 327 327 327 326 325 324 324 324 323 324 323 322 322 321 321 320 320 320 320 321 320 320 319 318 315 315 315 314 313 313 314 314 313 313 313 313 313 313 313 313 313 312
321 326 326 322 328 325 321 325 321 318 324 326 322 321 324 328 324 322 323 319 319 321 321 322 321 322 324 323 324 324 324 326 326 327 326 325 325 324 323 324 323 323 324 324 324 324 324 325 326 326 326 327 328 328 328 327 326 326 325 325 325 324 323 323 323 322 322 321 321 321 320 319 319 320 321 321 320 319 318 317 315 315 315 313 313 314 314 314 313 313 313 313 313 313 313 313 313
317 321 325 319 324 331 326 324 322 319 325 327 322 322 327 327 325 324 320 318 320 321 321 323 322 323 324 323 324 323 323 326 326 326 326 325 325 324 322 323 323 324 324 324 324 324 323 323 324 325 325 326 327 327 326 325 324 324 324 323 323 323 322 322 322 322 321 321 321 321 320 319 320 320 321 322 321 320 319 318 316 316 315 313 313 314 314 314 314 313 312 313 313 313 313 314 313
325 323 323 318 320 332 328 318 322 326 324 324 321 323 332 329 322 327 330 328 325 322 321 322 322 322 323 323 324 323 323 324 326 326 326 325 325 324 323 322 323 324 324 324 324 324 324 323 324 324 323 324 324 324 322 321 323 323 323 322 322 322 322 322 322 322 322 322 321 321 321 320 320 320 322 323 323 322 320 319 318 316 315 315 313 314 314 314 314 314 313 313 313 313 314 314 314
331 324 319 319 319 328 333 325 328 329 323 326 326 322 331 335 327 329 335 333 331 329 324 321 321 322 322 323 323 322 323 324 325 326 325 325 325 324 323 322 322 323 323 324 324 324 324 324 325 324 323 324 323 323 323 322 322 322 321 322 321 321 321 321 321 322 323 323 322 322 321 320 321 322 324 325 324 324 322 320 319 317 316 315 314 314 314 314 314 314 314 313 313 314 314 314 314
322 320 318 322 321 324 331 328 326 324 319 326 330 323 326 334 337 334 330 331 335 333 328 326 323 322 322 323 323 322 323 324 325 326 326 325 324 323 324 322 322 322 323 324 324 324 324 324 324 324 323 324 324 323 324 324 324 323 323 322 321 321 321 320 320 321 321 321 321 321 321 321 322 324 325 326 326 325 323 321 320 318 316 316 315 315 314 315 315 314 314 314 314 314 314 314 315
322 326 326 329 330 324 323 322 322 326 324 324 326 325 326 333 342 340 330 333 337 333 335 332 323 321 322 323 323 323 323 324 325 325 325 324 323 323 323 323 323 322 322 323 323 323 324 323 324 324 323 324 324 324 325 325 325 325 324 324 323 323 323 321 321 320 320 320 320 321 322 322 324 325 326 327 326 326 325 323 321 319 318 316 316 315 315 315 315 315 314 314 314 314 314 315 315
326 333 329 329 329 319 319 322 321 324 328 328 326 325 332 340 340 336 330 333 335 330 333 329 321 322 323 322 323 323 324 324 324 325 325 324 324 322 323 323 323 324 323 322 323 323 323 323 323 324 323 324 324 324 325 325 325 325 325 325 323 323 322 321 321 321 320 321 321 322 323 323 325 326 326 327 327 326 326 325 323 321 319 318 316 316 315 315 315 314 315 314 315 314 314 315 315
332 334 326 328 328 322 325 321 316 322 324 326 325 321 333 344 335 331 331 329 325 321 322 322 321 323 323 322 324 323 324 324 323 325 325 324 324 322 322 323 323 324 323 323 324 323 322 323 323 324 323 323 324 324 324 325 325 325 326 325 323 322 322 322 322 322 322 322 322 323 324 324 324 325 326 327 327 327 327 326 325 323 321 319 317 316 316 315 315 315 315 315 315 315 315 315 315
Wind_Speed
6 8 9 11 12 12 7 6 3 2 3 2 1 0 1 2 1 1 4 4 1 3 7 9 8 5 4 3 3 6 8 5 2 2 2 1 1 8 9 8 9 10 9 8 7 6 4 4 4 3 2 3 3 3 5 6 7 8 8 8 9 9 9 9 8 6 4 3 3 4 4 4 4 4 5 5 4 3 4 4 4 4 4 4 4 4 4 2 1 2 4 4 4 2 0 2 2
8 11 11 13 13 9 4 3 2 2 4 3 2 1 3 4 2 1 3 2 1 3 6 10 9 8 7 5 6 7 10 10 5 4 5 3 3 10 11 8 9 8 8 7 6 5 4 3 3 3 3 4 4 4 5 7 7 7 8 8 8 8 8 9 9 7 6 5 4 4 3 4 4 4 5 5 4 4 4 4 4 4 5 4 4 4 3 2 2 2 2 2 2 0 2 2 3
10 13 13 12 10 7 4 3 3 1 4 2 2 3 1 2 1 2 3 1 3 4 4 8 5 6 8 6 8 5 6 9 7 4 6 5 6 11 9 7 9 8 7 7 5 4 4 3 3 4 4 5 5 6 6 7 7 7 6 6 7 7 7 7 8 8 7 6 5 4 3 4 4 4 4 5 5 4 4 5 5 5 5 5 5 4 4 4 2 0 1 1 2 2 3 4 4
13 14 13 10 7 5 4 4 2 3 3 3 2 3 2 2 2 2 2 1 3 1 6 8 5 6 8 7 6 5 5 7 6 4 5 7 10 11 9 10 10 8 7 6 5 5 4 4 5 5 5 5 5 6 6 7 7 6 6 6 7 6 7 7 7 7 7 6 6 6 5 4 4 4 4 5 5 6 5 5 5 5 5 6 7 6 4 3 1 1 2 3 4 4 4 5 5
13 13 9 6 4 3 3 3 2 4 3 4 2 3 4 5 3 3 1 3 3 2 4 4 3 3 7 7 5 3 5 4 5 5 8 10 12 12 11 11 9 7 7 6 6 5 5 5 5 5 5 6 6 7 7 7 7 7 8 8 8 8 8 8 7 7 6 7 7 7 6 6 5 4 4 4 5 6 6 6 6 5 5 6 7 6 5 2 1 0 1 2 4 5 5 5 5
13 10 6 5 4 3 4 3 3 2 4 5 3 4 4 4 2 4 1 5 3 2 1 2 2 3 5 5 6 5 6 3 3 7 11 12 13 12 11 10 8 8 7 8 7 5 4 5 6 6 7 7 7 8 8 8 8 8 9 9 10 10 10 10 9 8 7 7 7 8 7 7 7 5 4 4 4 5 6 6 6 6 5 6 6 6 5 3 2 1 1 2 4 5 5 5 5
12 7 5 6 5 4 4 4 4 3 4 5 4 3 2 2 1 2 3 2 4 5 3 4 6 5 4 3 5 5 6 3 4 8 10 11 12 11 10 9 8 8 8 7 5 4 5 7 8 8 9 9 9 8 8 8 8 8 8 9 10 10 11 10 10 9 8 7 7 7 7 7 7 6 5 4 4 4 5 5 5 5 5 6 6 5 5 3 3 2 2 3 5 5 4 3 3
9 4 3 5 3 3 4 4 4 3 3 4 3 1 0 1 2 2 3 1 2 3 4 5 5 2 1 1 2 3 3 3 5 8 10 11 11 10 10 9 9 9 7 5 4 6 8 9 9 10 10 10 11 10 10 9 9 9 9 10 10 11 11 11 10 10 9 8 8 7 7 7 6 6 5 4 4 4 5 5 5 5 5 5 5 6 5 4 3 3 2 3 5 4 3 2 1
5 1 1 4 3 3 3 2 2 3 3 3 1 1 3 3 2 2 2 2 3 3 1 2 1 1 2 2 3 3 3 3 6 10 11 11 11 11 10 10 10 8 7 6 7 8 9 11 11 12 12 12 12 12 12 11 10 9 9 10 10 11 11 10 10 9 9 8 8 7 6 6 5 5 4 3 3 4 4 4 5 5 5 5 4 5 5 4 3 4 2 3 4 4 3 2 2
2 1 2 3 3 4 2 1 2 2 3 3 2 3 4 3 3 3 4 3 4 3 0 3 1 3 6 3 3 3 3 5 8 11 11 11 11 11 11 10 9 8 8 8 9 9 10 13 14 13 13 12 11 11 10 10 9 9 9 10 10 11 10 9 9 9 8 8 7 6 6 6 5 5 4 3 2 3 4 4 5 6 6 5 5 4 4 3 2 3 3 4 4 5 4 2 1
3 2 3 3 3 3 2 3 3 2 3 3 3 4 2 2 3 3 5 5 4 6 5 2 3 7 6 3 3 3 5 6 9 11 10 11 11 11 11 10 9 9 9 9 9 10 13 14 13 12 10 10 9 8 8 8 9 9 9 10 10 10 9 8 8 8 8 8 7 6 6 5 5 4 4 3 3 3 4 4 5 6 6 6 5 4 3 3 2 1 3 4 3 4 4 2 1
2 2 3 3 2 2 3 3 3 3 4 3 2 3 2 1 1 2 4 5 4 6 2 2 6 8 3 2 2 3 8 9 10 10 10 12 12 12 11 11 11 10 9 9 10 11 13 12 11 9 7 7 7 7 8 9 9 9 10 9 9 8 7 7 7 7 7 7 6 7 7 6 6 5 4 4 4 4 4 4 4 4 5 5 5 5 3 3 2 2 2 2 2 3 4 3 2
2 1 4 3 1 2 3 3 2 0 3 2 2 1 2 2 1 4 6 7 5 2 2 3 10 6 2 2 2 4 10 12 10 11 12 13 12 12 11 11 11 10 10 10 11 12 11 10 8 7 5 5 6 8 9 10 9 9 9 9 8 7 7 7 7 7 7 7 6 6 7 7 6 6 5 4 4 4 4 3 4 4 4 4 4 5 5 3 2 3 2 2 1 2 3 2 3
2 1 4 2 1 2 3 2 1 2 2 4 2 2 2 3 5 6 7 6 6 5 6 8 8 3 2 3 3 8 12 12 12 13 14 13 12 12 11 11 10 9 9 10 11 10 9 7 6 5 5 6 8 9 10 10 10 9 10 10 8 7 7 8 9 9 8 8 7 6 6 6 6 6 5 4 4 4 3 3 4 4 4 4 4 4 5 4 3 4 2 2 1 2 3 2 3
1 2 4 2 2 2 1 1 2 3 3 2 2 5 6 7 5 5 8 5 4 7 9 6 3 2 2 4 5 12 14 14 14 14 14 13 12 12 11 10 9 8 9 9 9 7 6 5 4 5 6 8 9 11 11 11 11 11 11 11 10 9 9 10 11 11 10 9 9 7 5 5 5 6 6 5 5 4 4 3 3 4 3 3 3 4 4 4 4 4 4 2 0 1 2 1 2
1 2 4 2 2 1 1 1 2 3 2 0 5 7 7 6 4 4 6 3 5 7 4 2 2 2 1 4 7 14 16 15 15 15 14 13 12 11 10 9 9 8 8 8 7 5 4 3 4 6 7 9 10 12 12 12 12 12 12 11 11 11 11 12 13 14 13 11 9 8 7 5 4 5 6 5 5 5 5 4 3 3 3 3 3 3 4 4 3 3 4 3 2 2 1 1 2
2 2 4 2 1 2 3 2 3 2 1 2 6 6 5 3 4 6 4 4 6 5 2 1 2 2 2 7 12 17 17 16 16 15 14 13 12 10 9 9 9 7 6 6 5 3 3 3 5 8 8 10 11 11 12 12 12 12 12 12 12 13 14 15 16 16 15 13 11 9 8 7 5 4 5 6 5 4 5 4 3 3 2 2 2 3 4 4 2 3 3 3 3 3 2 2 2
2 2 3 1 1 1 2 4 4 2 2 3 4 6 5 2 4 6 5 5 7 5 3 1 1 2 6 12 16 18 17 17 15 14 14 13 11 10 9 9 7 5 4 4 4 3 3 4 6 8 8 10 11 11 12 12 12 12 12 13 13 13 14 15 15 15 15 14 12 10 8 8 6 5 5 6 5 4 4 4 4 3 2 2 2 2 4 4 3 2 3 3 2 2 2 2 2
2 2 3 1 3 2 2 5 3 0 5 5 4 5 4 5 6 5 3 4 6 5 4 5 7 8 11 16 18 17 17 16 15 14 14 12 11 9 8 7 5 3 3 2 2 2 2 4 6 7 8 10 11 11 12 12 12 13 13 13 13 13 13 14 14 15 15 15 13 10 8 7 7 6 5 5 5 4 4 4 4 3 2 2 2 2 4 4 4 3 3 3 3 3 2 2 2
3 3 3 0 4 3 1 3 2 3 8 8 6 4 5 7 5 3 4 4 4 2 3 5 10 14 17 19 18 17 16 15 14 14 13 12 10 8 7 6 4 3 2 1 2 2 2 3 5 6 8 9 9 10 11 11 11 12 13 14 14 13 14 14 15 17 17 16 14 11 8 5 6 6 5 5 3 3 4 4 4 4 3 2 1 2 3 4 4 4 4 5 5 4 3 2 3
5 3 0 1 3 2 1 2 4 4 9 10 8 6 6 5 3 5 7 5 2 3 6 5 12 20 20 20 18 17 16 14 14 13 12 11 9 8 7 5 4 3 1 1 1 1 2 4 5 7 7 8 8 9 9 10 10 10 12 13 13 13 15 17 19 20 20 19 16 12 7 4 5 6 5 5 4 3 4 4 3 4 4 3 2 2 3 3 4 4 4 5 5 4 4 4 4
5 2 5 3 2 2 2 4 6 7 10 11 9 6 5 5 5 6 6 3 1 4 7 7 15 21 19 20 18 17 16 14 14 12 11 10 8 8 6 5 4 2 1 0 1 2 3 5 6 7 7 7 8 8 9 9 9 9 11 13 13 14 17 19 22 23 23 21 17 13 8 3 3 6 5 4 4 3 4 4 3 3 4 4 3 3 3 3 3 4 4 4 4 4 4 4 4
4 1 2 4 5 3 3 7 9 11 13 9 6 7 7 8 7 4 4 3 2 4 6 10 18 20 18 19 17 17 15 13 12 10 9 8 7 6 5 4 3 2 1 2 2 3 4 6 6 7 7 8 9 8 9 9 9 10 10 12 14 16 19 21 23 25 25 23 19 15 10 5 1 5 5 4 3 3 4 4 3 3 4 4 4 3 3 2 3 4 4 5 5 4 5 4 4
6 2 2 4 7 7 5 8 9 11 12 8 8 8 6 7 5 4 5 4 4 4 5 13 19 18 17 17 16 16 13 12 11 9 8 6 5 4 4 3 2 2 2 2 3 4 5 6 7 7 8 9 9 8 8 9 10 11 10 11 14 17 19 22 24 26 26 24 20 15 12 8 4 1 4 4 2 2 3 3 3 3 4 5 5 4 4 3 3 3 4 5 5 5 5 4 4
5 2 2 3 6 8 10 11 11 11 11 11 11 7 5 6 5 4 5 4 4 4 8 16 19 17 17 16 14 13 12 11 9 8 7 6 6 5 4 4 4 4 3 3 3 4 5 6 6 6 7 9 9 8 9 9 10 10 10 11 14 17 19 22 24 26 26 23 20 16 12 10 8 4 1 1 1 1 2 3 4 5 5 6 5 5 4 4 4 4 4 4 4 4 4 4 5
2 3 3 3 5 9 13 13 12 12 12 13 10 6 6 5 4 4 3 4 5 7 13 17 16 15 15 13 12 12 11 10 8 7 6 6 7 6 6 6 6 6 5 4 4 5 6 6 5 5 7 9 9 8 9 9 10 10 10 11 13 16 18 20 23 25 26 22 19 16 12 11 10 7 5 3 2 3 3 4 5 5 6 7 6 5 4 4 4 4 4 3 3 4 5 5 5
6 9 8 6 6 8 12 12 10 11 9 10 9 4 3 4 3 2 1 3 6 9 14 15 15 14 13 11 11 11 10 10 8 8 7 7 8 7 7 7 8 8 7 5 5 5 6 6 7 7 8 11 9 6 8 8 9 10 10 11 12 15 17 19 21 24 26 23 19 15 12 11 10 8 7 5 3 3 4 5 5 5 7 8 7 6 5 5 4 4 4 3 3 4 5 5 5
9 11 9 7 8 9 11 11 9 8 4 7 10 4 1 5 3 2 4 6 5 9 13 14 14 14 12 10 10 11 11 10 9 10 8 8 7 7 8 7 8 8 6 6 5 5 6 7 8 8 7 11 8 5 7 7 8 9 9 10 11 14 15 17 20 23 25 23 18 14 10 10 9 8 7 6 5 5 5 5 5 6 7 8 8 7 6 6 6 6 5 5 5 5 5 6 6
7 7 5 4 7 6 7 8 7 4 2 7 7 4 5 5 2 1 5 7 6 8 11 13 14 13 13 10 10 12 12 11 12 11 9 8 8 8 7 6 6 6 6 6 6 6 7 8 9 8 9 12 9 4 6 6 7 8 8 10 11 13 14 16 19 21 24 23 18 13 10 9 8 8 8 7 6 6 7 7 7 8 8 9 8 7 6 7 7 7 7 6 6 7 7 7 7
4 5 4 2 6 2 3 6 7 2 1 8 3 4 4 6 5 3 5 7 7 8 9 10 12 12 12 11 10 12 12 12 13 13 10 9 9 8 6 5 5 5 6 7 7 7 8 8 8 9 10 14 10 3 4 6 7 7 7 9 11 12 13 15 17 20 22 23 19 13 10 9 8 8 8 8 7 7 7 8 8 8 8 8 8 7 6 7 7 8 7 7 8 8 9 8 8
2 3 3 2 3 2 4 4 8 2 1 8 3 3 3 7 5 4 6 8 7 8 9 9 11 11 12 12 11 12 12 13 13 13 12 11 9 9 7 6 6 6 8 8 8 7 8 8 8 9 10 12 7 3 5 6 6 7 7 9 10 11 13 15 16 18 20 22 20 14 10 9 9 8 8 9 9 9 9 8 8 7 6 7 7 7 7 7 7 8 8 8 8 8 9 9 8
3 2 3 3 2 3 6 2 9 5 1 5 4 2 4 6 5 6 8 8 8 9 9 10 11 12 13 13 13 14 13 13 13 14 13 12 11 10 9 9 8 8 9 9 8 8 8 8 9 9 9 10 6 4 6 5 5 6 7 9 10 11 13 14 15 17 19 21 21 16 10 8 9 9 9 10 10 10 11 11 9 7 6 5 5 6 7 7 7 8 8 9 9 8 9 9 9
4 2 1 3 1 2 4 2 7 8 5 2 2 0 3 3 3 6 10 10 9 10 11 10 11 11 12 13 14 15 15 14 15 14 13 13 12 11 11 11 10 10 9 9 8 8 7 7 8 8 8 8 7 6 6 5 5 5 7 9 9 10 12 14 14 15 17 19 21 19 13 9 9 9 10 10 10 10 11 11 9 8 7 6 6 5 6 7 7 8 8 9 10 9 9 9 9
4 2 0 3 1 1 1 3 4 7 5 2 2 1 5 4 4 5 11 11 10 11 12 12 11 12 12 13 14 14 15 15 14 14 13 12 12 12 12 11 11 10 8 8 7 6 6 7 8 8 8 8 7 7 7 5 5 6 8 8 8 9 11 12 13 14 15 17 19 19 17 14 11 10 10 10 9 10 10 10 8 7 7 7 6 6 6 6 7 8 9 10 10 10 11 10 9
2 2 1 2 2 3 3 3 4 7 4 2 3 3 8 7 3 5 11 12 12 13 12 12 13 14 14 14 15 15 15 15 12 11 12 12 12 13 12 11 10 9 8 8 7 6 7 7 8 8 8 8 7 7 7 6 6 7 8 8 8 9 10 12 12 13 14 15 16 18 17 17 15 14 13 11 10 10 10 10 9 8 7 7 6 5 5 5 7 8 9 9 10 11 11 11 11
4 5 4 3 3 3 4 4 5 8 5 2 5 4 7 6 3 4 9 12 13 13 12 13 14 15 16 16 16 16 16 14 10 11 12 11 12 13 13 12 10 9 10 10 9 8 8 8 8 8 8 8 7 7 7 6 7 8 8 8 8 9 10 11 11 12 12 13 14 15 16 17 16 16 15 14 12 11 11 11 10 9 9 9 8 7 6 6 7 9 9 9 9 10 10 10 11
4 4 3 3 3 3 4 3 4 8 5 5 6 4 6 6 5 3 8 10 10 12 13 15 17 17 18 18 17 17 16 13 11 11 11 10 11 12 13 12 10 11 11 10 9 8 7 7 8 8 8 7 7 6 6 6 7 8 8 7 8 8 9 9 10 10 11 12 12 13 15 16 16 16 16 16 15 13 12 11 11 11 11 11 10 10 9 9 9 9 9 10 10 10 10 9 9
4 4 2 2 2 4 5 1 5 8 5 4 4 3 7 6 5 3 8 8 9 14 15 16 18 17 18 18 18 17 15 13 11 11 10 9 10 11 12 12 11 11 11 9 8 7 6 7 7 8 8 7 6 6 6 6 7 8 8 7 7 7 8 9 9 9 9 10 11 12 13 14 15 16 16 17 16 15 13 12 11 11 12 12 12 11 10 10 9 8 8 9 10 10 10 10 10
2 3 1 2 3 3 4 3 3 6 2 3 3 4 7 6 5 5 9 10 9 13 15 17 17 17 18 18 17 16 15 13 11 10 10 10 10 11 12 12 11 11 11 9 8 7 6 6 6 7 7 6 5 5 5 6 7 8 8 7 7 7 7 8 8 8 8 8 9 11 11 13 14 15 16 18 18 16 14 12 12 12 12 13 13 12 12 12 11 10 9 8 8 8 8 9 9
2 3 3 3 3 1 2 2 2 3 1 1 3 2 5 5 4 4 7 11 9 9 12 15 16 18 19 18 18 17 15 13 11 9 10 11 11 12 12 12 12 12 11 10 8 7 5 4 5 5 5 5 4 4 5 6 7 7 7 7 7 7 7 7 7 7 7 7 8 9 10 12 13 15 16 18 19 17 14 13 12 12 12 13 14 14 13 13 12 11 10 8 7 6 6 7 8
3 4 5 4 2 3 2 3 3 2 2 2 5 3 5 4 4 5 3 5 8 9 10 13 16 18 19 19 19 17 15 13 11 9 9 11 12 12 12 12 12 12 11 10 7 5 4 3 4 5 4 4 4 4 4 5 6 6 6 7 7 7 6 7 7 7 7 6 6 8 9 11 12 14 15 17 19 18 15 13 11 11 12 13 14 14 14 13 11 11 10 9 8 6 6 7 7
3 3 9 6 5 4 5 6 5 3 3 2 4 3 5 4 4 5 4 2 5 6 8 13 17 18 18 20 19 17 15 13 12 10 9 10 10 10 11 11 11 11 11 9 6 4 3 3 3 4 4 4 4 4 4 4 4 5 5 6 6 6 6 6 6 7 7 7 7 7 9 10 12 13 14 15 18 19 17 14 12 11 12 13 13 14 14 13 11 10 10 9 8 7 6 5 4
2 5 8 7 7 8 9 8 5 3 3 3 4 4 3 5 5 5 5 5 6 5 6 13 17 18 19 20 19 17 15 13 11 10 9 9 8 8 9 9 10 9 8 7 5 4 3 3 3 3 4 4 5 5 5 4 4 4 5 6 6 6 6 6 6 7 7 7 7 7 8 9 11 12 13 14 16 18 18 16 13 11 11 12 12 12 13 14 13 11 9 9 8 8 7 5 4
2 3 7 9 8 9 10 9 4 3 3 4 5 4 1 3 5 5 4 4 7 7 6 10 15 19 20 20 19 17 14 12 10 9 9 9 8 7 7 7 8 7 6 6 5 4 3 3 3 4 4 4 5 6 6 5 5 6 6 6 6 6 7 7 7 7 6 7 7 7 8 9 10 11 12 12 14 17 18 17 14 11 11 11 11 12 12 14 14 11 9 9 8 8 7 6 5
5 3 9 7 7 8 8 7 4 1 3 2 4 2 2 4 6 5 4 2 6 8 7 9 14 20 20 20 20 17 15 13 11 9 8 8 8 7 7 7 7 6 5 6 5 5 4 4 5 5 5 4 5 6 6 6 7 7 7 7 6 6 6 7 7 7 6 6 6 7 8 8 9 10 11 11 12 14 16 16 15 13 11 11 11 11 11 12 15 14 11 10 9 8 8 7 6
3 5 8 5 5 5 4 5 4 3 3 3 5 3 2 4 5 4 3 1 6 7 6 8 14 20 20 20 20 18 16 14 12 10 8 8 8 7 7 7 7 6 6 6 7 6 6 6 6 6 5 4 5 6 7 7 7 8 8 7 7 7 7 7 7 7 6 6 5 6 7 8 9 9 10 10 10 12 14 14 14 14 13 13 12 11 10 11 13 14 13 12 9 8 8 7 7
5 7 6 7 6 5 4 3 4 4 2 5 6 4 5 2 5 3 2 3 4 4 4 6 10 16 19 20 20 19 18 15 12 11 8 7 8 8 7 7 8 7 8 9 9 8 8 7 7 7 5 6 6 6 7 7 7 8 7 7 8 8 8 8 8 6 5 5 5 6 7 8 8 9 9 9 9 10 12 12 13 13 13 13 14 13 11 10 11 13 13 12 11 9 8 8 7
6 5 4 5 3 4 4 4 4 4 3 5 4 3 6 1 5 4 5 6 4 4 5 6 8 14 18 18 19 19 18 16 13 11 9 7 8 8 8 7 8 9 10 10 10 10 9 8 8 7 6 6 7 7 7 7 8 8 7 8 8 8 8 9 8 7 6 6 5 5 6 7 7 7 8 8 8 8 9 10 11 11 12 12 13 13 13 12 11 12 13 13 13 12 11 11 9
5 5 5 4 2 3 2 2 1 1 4 3 1 2 3 3 6 5 6 7 6 6 7 6 7 13 16 16 17 17 17 16 14 12 10 8 8 7 7 6 7 8 9 9 9 10 9 9 8 8 7 6 7 7 7 7 8 8 7 7 7 8 9 9 8 7 6 6 5 5 6 6 6 6 7 7 7 7 7 8 9 9 10 10 11 12 12 12 12 11 11 12 13 13 13 12 10
5 3 4 3 2 3 1 3 1 1 2 2 2 1 1 3 4 4 6 8 9 9 10 10 9 11 13 14 15 16 16 16 14 12 10 9 8 6 5 5 6 6 6 6 6 7 8 9 9 8 7 7 7 7 7 8 8 8 8 9 8 8 9 9 8 7 7 7 6 5 6 6 6 6 6 5 5 5 5 6 7 8 8 8 9 9 10 11 11 10 10 10 11 11 11 11 11
2 3 4 3 4 3 2 3 1 1 2 3 4 1 2 2 3 5 7 9 7 5 8 10 10 11 11 12 14 14 15 15 14 13 10 8 7 5 4 5 5 5 4 4 4 4 6 7 8 9 7 7 8 8 8 8 8 8 9 10 9 10 10 10 9 8 8 7 7 6 6 6 6 6 6 6 5 4 4 5 5 6 7 7 6 8 8 8 9 10 9 9 9 9 9 9 10
1 2 4 2 3 4 3 3 3 2 1 1 3 2 3 3 4 6 7 5 4 3 3 6 8 9 9 11 12 11 12 13 14 14 11 8 7 6 5 4 4 4 4 4 3 3 3 4 5 7 7 8 9 9 9 8 8 8 9 9 9 9 9 9 9 8 8 8 8 8 7 7 7 7 6 6 6 5 5 5 4 5 6 6 5 5 7 7 7 8 9 9 9 9 9 9 10
1 3 2 2 3 7 5 1 0 3 3 0 1 2 4 3 2 6 6 4 4 4 1 3 6 7 8 11 12 10 10 11 13 15 11 8 8 7 6 5 5 4 3 3 3 3 4 4 4 5 6 7 7 7 7 6 7 8 8 8 8 9 9 9 8 8 8 8 9 9 8 8 8 8 7 7 8 7 6 6 5 4 4 5 5 5 5 5 6 6 7 8 9 9 9 9 9
1 2 3 3 2 5 4 2 3 5 2 2 2 2 4 2 0 5 7 4 5 4 4 4 6 7 9 11 11 10 10 10 13 14 12 9 8 8 7 6 6 5 4 4 4 4 5 5 6 5 5 4 5 5 5 5 5 6 7 8 8 9 9 9 9 8 9 10 10 10 10 9 8 8 8 8 9 8 8 8 7 5 4 4 5 5 5 5 5 5 5 6 7 8 9 8 9
3 3 3 2 2 0 2 3 1 1 1 3 4 3 2 2 3 4 4 4 6 5 5 5 6 10 11 12 10 10 10 11 14 15 13 10 8 8 7 6 6 5 5 5 5 5 6 5 5 5 3 3 2 3 4 3 3 4 5 6 7 8 8 8 9 9 10 11 10 10 10 9 9 9 10 10 11 9 8 9 8 7 5 4 4 5 5 6 5 5 5 6 6 8 8 9 9
4 4 3 2 3 2 1 2 1 2 2 2 3 3 2 4 5 4 6 8 6 5 5 5 9 13 14 12 10 10 12 12 14 15 14 11 8 7 6 6 5 5 6 6 7 7 7 6 6 5 4 3 3 4 4 4 4 4 5 6 7 7 7 7 7 7 8 8 8 9 9 9 9 9 11 13 14 11 9 9 9 8 8 6 5 5 6 6 7 6 7 7 6 7 8 8 9
3 4 3 3 2 1 1 2 2 2 3 2 0 2 5 6 4 5 8 8 6 8 7 7 13 16 15 12 10 10 11 11 12 14 13 11 9 8 6 5 5 5 6 7 7 8 8 8 8 7 6 6 5 5 6 6 6 6 6 7 7 7 6 6 5 4 5 6 6 7 7 8 10 11 12 14 15 13 11 10 10 10 10 8 7 6 6 7 7 7 7 7 7 8 8 7 8
3 3 2 2 2 2 3 2 2 2 2 3 3 2 6 6 3 5 7 6 7 10 9 10 16 18 15 12 10 10 10 9 10 11 12 11 10 8 7 6 6 6 7 7 8 9 10 9 9 8 8 8 7 7 7 8 8 9 9 8 7 7 7 6 5 5 6 7 7 7 7 8 10 11 13 14 15 14 12 11 11 11 11 11 9 8 8 8 8 8 7 7 7 8 8 7 7
Wind_Direction
129 126 125 127 133 134 128 124 110 356 77 95 330 31 254 253 219 324 326 309 302 51 39 37 39 39 54 59 93 93 46 40 97 96 157 34 120 160 153 158 147 137 138 124 113 106 91 80 62 56 53 37 30 32 38 43 44 44 43 42 47 49 50 50 48 42 32 27 13 16 17 4 4 8 4 359 354 348 352 354 359 357 342 335 333 315 300 283 284 355 -0 351 330 314 322 213 205
121 123 125 131 136 136 145 110 91 349 62 68 315 180 268 309 25 345 296 291 148 113 61 35 42 54 38 36 59 67 43 36 41 58 88 84 163 154 148 148 141 142 139 122 113 107 84 69 58 68 72 58 51 46 46 46 47 44 41 39 43 47 49 49 46 44 37 28 18 22 13 358 4 11 8 6 2 352 353 349 357 3 353 345 329 316 324 348 -0 357 345 323 307 220 148 193 197
122 125 125 130 133 133 140 71 83 89 80 93 284 238 273 330 321 277 295 346 127 121 40 10 23 25 12 30 34 40 45 36 40 66 89 107 139 145 161 158 147 152 141 127 109 93 83 84 78 82 76 61 48 41 40 38 39 34 31 31 33 36 36 39 41 42 39 31 21 20 14 2 -0 8 9 6 6 1 355 342 348 3 359 348 333 334 346 343 341 249 193 170 188 182 177 191 191
128 130 127 128 125 118 100 50 117 114 109 155 251 251 234 205 211 260 345 76 160 67 346 2 41 28 29 37 23 44 51 35 40 72 100 110 127 135 151 148 149 152 137 124 98 85 90 92 78 69 56 46 38 30 27 27 27 25 27 27 27 29 28 28 32 35 38 37 29 20 15 9 1 3 6 359 -0 2 359 349 347 357 2 351 339 348 357 331 320 173 169 155 184 198 200 196 189
133 134 132 141 135 119 92 65 112 102 157 177 188 248 233 201 207 238 98 107 177 316 335 20 45 48 58 42 24 44 23 24 34 71 107 112 126 130 135 139 143 139 123 107 93 91 90 76 56 48 42 37 35 31 29 28 30 30 32 33 33 33 32 31 30 29 33 37 32 23 18 15 9 1 356 354 353 353 352 353 350 351 359 353 348 2 10 322 278 180 169 170 196 196 197 204 197
133 129 123 130 117 107 99 82 114 130 205 174 171 244 228 200 221 255 223 95 70 15 151 76 91 103 71 50 57 48 15 32 49 84 111 116 126 133 137 138 133 124 109 102 95 89 74 61 54 52 53 47 44 41 37 35 35 36 37 38 38 36 34 32 30 25 26 29 26 21 20 18 15 5 351 348 350 347 343 347 349 350 353 354 359 12 16 340 290 258 221 193 212 206 202 212 205
136 127 115 112 81 71 98 120 159 189 221 181 180 228 219 197 78 318 315 73 34 34 108 104 126 118 84 94 74 47 29 60 92 103 118 125 132 137 138 132 123 115 105 101 87 74 65 64 66 63 61 56 54 49 45 44 41 42 43 44 44 41 38 35 33 29 25 22 18 14 17 17 15 10 357 349 350 354 355 352 352 359 3 359 -0 6 13 359 317 264 223 205 215 218 213 214 203
140 138 126 108 47 42 101 140 180 197 209 202 204 219 339 16 61 16 356 44 21 51 107 105 118 115 97 106 73 72 52 67 101 115 125 128 130 127 127 122 116 110 102 92 74 77 74 69 69 69 70 68 64 60 55 52 50 50 51 51 50 47 43 38 34 31 28 23 19 14 12 15 13 14 9 357 350 355 6 6 9 12 13 8 2 359 358 1 327 279 213 207 218 226 224 224 256
131 132 114 96 72 60 83 126 205 218 239 269 303 339 16 49 87 96 66 67 106 120 169 173 93 36 131 70 60 95 71 86 113 121 124 122 120 117 116 113 110 105 95 86 83 80 76 77 78 79 79 77 73 67 61 55 52 49 49 51 50 48 42 36 32 27 26 24 22 20 14 10 9 15 14 6 349 348 357 3 15 16 20 15 8 4 350 357 330 292 235 211 224 236 227 224 271
62 32 106 89 79 83 74 226 237 240 265 306 338 316 353 72 127 108 105 114 132 125 152 205 197 94 124 88 61 92 94 114 125 128 123 119 115 112 111 109 107 102 100 93 87 78 81 86 85 85 83 80 77 71 66 60 55 49 45 46 47 47 40 32 29 23 21 23 21 17 8 1 3 9 10 14 358 346 347 353 5 7 14 8 4 15 359 351 334 295 260 235 219 237 232 199 161
359 24 87 82 81 118 173 207 247 274 289 332 338 293 328 87 114 94 106 117 136 129 105 121 140 116 115 83 73 120 143 140 135 135 126 120 116 114 113 112 114 109 105 95 85 85 92 95 92 91 87 85 82 73 67 59 53 46 44 41 41 42 37 26 22 17 16 20 20 12 -0 358 1 -0 5 12 8 358 352 349 354 357 2 358 359 13 8 344 333 324 270 248 193 225 236 204 138
338 6 62 86 113 177 177 172 225 273 320 344 325 281 227 216 134 119 113 96 109 142 88 9 141 127 89 61 85 138 157 157 148 143 132 126 122 119 120 115 115 110 101 92 89 96 104 106 100 97 95 92 81 64 55 51 41 38 41 37 32 31 28 18 12 9 5 7 9 8 359 356 354 349 356 -0 3 4 358 350 346 357 2 354 349 347 354 -0 325 333 319 286 151 197 224 218 197
354 95 75 87 126 138 136 146 201 31 339 284 237 268 205 251 92 118 111 82 60 85 3 101 145 126 65 86 93 142 154 162 157 147 138 130 127 123 121 114 111 105 96 96 102 109 112 111 105 102 93 78 63 51 45 43 36 32 36 32 24 16 12 4 -0 356 348 345 345 353 355 353 347 337 340 346 355 357 356 353 348 -0 11 -0 344 333 334 349 316 309 345 338 67 192 216 201 204
2 93 90 101 54 80 128 129 139 112 281 254 213 154 114 35 68 97 96 78 32 62 104 126 146 95 109 136 123 150 150 158 153 143 138 130 130 124 119 116 112 106 98 105 114 117 114 110 104 91 69 57 50 44 38 32 29 27 27 27 24 12 2 355 352 348 340 335 330 332 340 346 343 333 330 330 334 339 344 349 357 359 1 -0 352 340 324 328 324 308 315 345 67 177 210 182 206
34 57 87 107 50 35 122 140 136 133 211 263 112 132 96 49 72 85 69 78 63 114 126 126 146 40 160 172 146 158 149 150 147 140 140 133 132 127 125 124 118 114 106 110 115 113 111 109 93 70 54 49 43 35 28 22 20 19 16 17 17 8 359 352 350 350 348 344 333 322 318 325 333 330 328 327 325 324 324 328 353 -0 354 357 352 349 324 319 329 323 324 328 335 185 191 195 233
146 86 71 88 85 112 161 165 133 133 235 30 117 129 91 45 80 74 36 84 125 137 141 114 156 6 223 167 142 155 146 145 145 142 145 139 137 135 136 132 125 125 114 108 105 103 102 92 70 54 44 40 33 25 19 16 15 11 8 7 6 2 357 352 349 350 352 351 339 324 314 305 313 321 321 321 325 322 316 320 333 340 350 357 348 342 323 317 328 320 324 328 298 264 226 234 274
176 107 61 75 138 169 181 157 147 163 231 128 134 128 99 38 67 76 52 104 119 136 167 236 262 303 194 156 148 154 148 146 146 146 148 144 147 146 145 139 131 129 113 102 91 82 62 48 47 39 34 30 23 18 16 15 14 8 5 1 359 357 354 352 349 349 349 349 342 328 317 305 294 296 308 310 317 326 320 325 327 310 320 336 342 340 322 318 325 297 297 319 307 282 267 264 279
148 108 79 120 152 175 188 167 189 190 143 163 162 129 118 120 104 102 83 83 97 110 125 131 217 141 153 153 154 155 150 150 150 149 151 150 156 155 151 141 130 121 104 91 72 50 29 30 35 27 23 22 17 16 17 16 14 12 11 8 6 4 2 1 -0 357 353 351 346 335 320 307 293 278 287 299 308 325 328 334 338 323 307 316 330 331 313 315 328 302 276 291 312 304 257 232 243
88 97 99 170 191 191 182 162 193 144 144 162 147 131 127 134 130 125 104 70 88 95 88 107 118 123 144 152 156 157 154 154 154 154 156 158 160 156 147 133 125 120 101 75 44 28 21 26 26 18 15 16 14 18 19 16 18 21 24 24 24 23 22 20 16 10 2 358 355 349 333 308 291 277 274 286 303 321 328 333 335 333 327 318 311 296 300 310 318 307 288 291 303 311 287 239 231
41 54 74 247 205 193 183 147 78 92 152 144 120 125 116 131 133 117 126 96 76 116 128 122 129 135 147 153 157 159 159 160 160 160 162 162 158 150 138 127 127 128 107 56 24 12 10 14 12 9 11 10 12 19 17 16 22 27 32 33 32 32 31 27 20 13 8 4 -0 357 349 320 285 272 274 277 286 302 305 315 321 326 329 318 298 295 301 305 304 300 307 308 304 300 296 283 255
49 51 192 223 185 136 80 124 69 103 153 138 125 123 108 134 143 119 126 104 13 223 177 161 151 149 152 157 161 163 164 166 164 165 165 162 156 147 138 134 132 129 118 72 10 344 345 354 -0 4 6 5 10 17 13 14 22 27 32 33 33 32 29 25 20 15 11 8 4 360 357 342 282 257 263 275 273 281 285 295 308 319 325 328 342 340 328 312 302 299 308 315 313 305 291 279 269
84 178 213 169 129 92 55 84 94 119 139 130 124 123 122 124 111 117 120 107 243 212 181 173 160 156 157 159 162 166 167 167 167 167 167 165 159 148 140 138 134 137 176 212 328 329 340 349 354 358 359 359 6 13 12 16 19 22 28 32 35 32 28 24 21 16 12 11 9 8 8 2 274 239 242 274 280 278 278 282 299 318 327 337 351 359 353 330 314 307 299 300 311 321 319 302 283
110 175 185 110 75 77 89 90 108 131 131 125 127 135 133 114 95 98 90 76 125 164 178 174 164 160 161 163 166 170 169 168 170 170 171 171 162 152 145 143 139 155 233 264 292 319 331 343 348 352 354 356 8 13 10 13 14 20 28 32 35 32 28 24 21 16 13 12 13 14 16 19 319 228 224 253 279 278 280 282 295 314 324 334 341 347 359 353 333 321 306 295 296 308 322 325 312
93 60 37 77 58 69 101 104 119 135 127 126 136 134 122 108 106 92 76 68 91 122 173 172 166 165 165 169 172 174 175 174 176 177 181 182 177 178 176 183 202 224 269 281 296 313 323 337 341 345 351 355 8 12 5 7 9 18 30 33 34 31 27 23 21 17 14 14 13 15 19 26 31 226 215 232 270 277 279 289 302 312 319 328 334 337 345 350 347 337 323 311 302 299 304 315 320
69 60 49 68 62 87 110 110 118 121 119 129 124 108 97 101 108 96 80 87 94 113 160 169 169 169 171 175 179 182 184 182 183 188 194 200 205 212 217 228 240 255 275 285 305 319 325 331 335 341 353 -0 7 5 -0 8 12 18 27 30 32 30 26 23 20 18 17 15 13 17 24 32 40 45 98 222 282 308 303 307 313 318 323 328 330 333 338 344 346 337 331 325 311 302 303 308 312
56 97 89 74 80 104 114 107 109 113 121 129 107 84 102 78 57 78 80 106 110 130 158 170 173 174 178 183 186 189 190 188 190 198 206 212 219 229 236 246 255 261 270 283 309 325 326 321 315 326 347 352 355 360 359 7 13 18 23 26 31 29 26 23 20 18 19 17 15 22 31 36 40 47 53 53 13 356 340 321 316 323 329 333 332 332 337 346 348 339 334 325 309 305 309 311 316
103 101 82 75 95 107 116 109 111 120 123 122 109 121 136 17 10 107 149 142 127 143 162 175 179 182 188 190 194 197 196 196 200 207 216 221 228 241 245 252 255 258 264 274 301 315 311 300 301 318 336 337 340 354 360 3 6 11 18 21 27 26 24 22 19 19 20 19 18 23 35 39 39 45 51 52 28 -0 342 326 324 325 326 331 336 336 335 338 342 338 331 323 318 317 315 315 320
110 108 72 53 85 100 114 113 123 123 104 129 124 132 328 4 28 143 177 170 156 160 169 181 188 191 194 199 208 210 206 204 209 213 220 229 237 248 254 258 254 259 262 264 287 294 291 292 305 313 313 326 337 343 348 356 355 3 15 17 22 22 21 20 18 18 19 20 20 21 30 37 38 39 40 40 29 9 352 344 342 332 324 326 333 337 338 338 335 331 329 329 329 327 326 328 328
96 96 69 18 47 82 119 120 144 126 80 165 130 54 344 344 336 206 175 174 184 183 184 191 197 202 206 214 219 217 214 211 212 213 220 232 240 249 256 263 259 266 261 261 278 278 285 295 310 311 302 327 344 328 331 351 348 355 7 10 16 16 17 17 16 18 19 20 22 24 26 30 33 31 28 24 18 7 355 349 346 340 330 324 325 329 336 338 334 329 328 328 330 331 334 337 340
74 51 76 29 16 29 163 134 154 118 108 178 131 25 306 298 285 235 191 189 196 200 207 209 212 217 218 223 222 218 215 216 217 214 224 240 247 253 257 263 261 263 257 264 277 277 287 295 309 312 311 335 350 324 334 351 342 346 358 4 10 10 12 13 14 17 18 19 22 29 30 27 30 29 27 20 9 358 347 340 339 337 333 329 329 331 333 332 330 330 330 330 331 330 331 335 342
43 24 48 43 38 277 262 153 152 104 189 184 105 57 245 284 276 223 205 205 210 215 222 225 230 231 229 230 227 225 219 219 224 220 229 244 253 260 262 268 265 263 265 273 280 278 288 293 302 309 315 338 350 327 343 351 337 339 351 360 4 5 8 9 11 15 18 19 22 28 32 29 31 28 24 20 14 9 4 358 353 348 347 347 343 339 335 331 328 330 333 332 329 326 325 325 328
32 52 345 345 80 273 295 220 164 141 140 174 101 51 255 283 267 219 208 212 218 226 235 235 239 238 236 237 233 234 230 227 231 231 234 241 253 265 269 275 272 273 277 280 281 279 286 290 299 312 325 342 349 334 345 350 336 335 347 356 359 359 1 4 9 14 18 21 22 26 30 25 25 24 22 20 16 15 15 14 14 11 10 6 353 342 333 329 329 332 334 332 327 321 319 321 321
3 69 279 293 31 294 307 288 188 153 112 137 123 9 253 297 299 217 207 217 221 232 247 248 250 251 246 245 242 243 241 239 241 242 242 243 251 261 268 273 273 278 282 280 281 283 289 292 305 323 333 343 349 344 348 347 333 331 340 347 350 351 355 358 6 13 16 22 26 28 30 24 15 14 18 19 14 10 9 12 17 22 22 17 4 350 334 327 326 328 330 329 327 323 319 322 325
325 36 18 253 222 214 255 293 216 150 118 151 159 259 248 280 322 209 206 216 221 232 248 256 262 263 261 258 254 253 252 252 254 253 250 247 249 253 259 263 266 275 279 277 283 286 288 295 310 326 331 336 343 343 347 347 337 331 333 340 342 344 349 353 2 12 14 21 29 32 34 31 21 13 12 10 7 2 2 7 12 16 20 18 9 354 340 332 326 325 328 329 327 325 324 325 328
213 171 180 264 234 200 211 253 209 153 126 153 152 260 262 277 311 203 206 213 221 234 247 258 266 267 268 265 260 259 258 260 267 267 259 251 248 250 256 261 266 274 278 283 290 287 288 298 310 321 325 328 332 337 344 345 343 338 333 334 337 340 343 347 357 8 11 16 26 33 36 37 33 24 17 9 2 359 358 3 5 5 9 10 2 347 335 332 330 330 333 335 333 331 330 329 328
171 175 159 179 211 233 223 239 214 158 132 190 185 231 268 281 293 200 204 212 222 240 250 257 264 268 269 266 264 263 262 266 276 276 269 260 252 250 259 268 272 277 281 288 294 294 298 306 313 320 323 323 327 333 338 335 339 341 331 326 328 333 336 340 350 1 8 10 18 26 31 36 37 29 23 14 6 1 357 360 2 1 3 4 1 354 345 340 338 339 341 341 339 335 332 328 325
128 135 145 177 196 263 249 240 215 156 139 227 207 236 279 283 293 218 192 206 224 238 250 257 261 267 270 271 269 266 267 273 280 279 276 271 259 253 261 269 272 275 279 288 300 304 306 313 319 321 320 320 323 325 329 326 328 334 330 322 320 324 328 332 342 354 2 5 9 16 20 26 31 29 24 18 11 4 358 357 359 2 4 5 7 7 0 351 344 341 341 340 337 335 335 334 331
99 116 169 243 222 249 261 245 191 161 150 241 194 231 274 280 291 223 168 186 227 231 237 252 259 266 271 273 275 274 275 278 278 277 276 275 267 259 261 265 270 273 276 290 308 306 303 314 324 323 318 317 318 316 318 318 319 325 327 323 315 314 322 328 337 350 359 2 3 7 11 15 20 23 22 19 15 7 -0 357 357 1 3 5 8 6 0 352 345 340 338 340 341 340 342 343 342
109 97 129 278 258 238 292 351 153 157 159 267 190 202 263 284 282 229 178 193 231 236 237 249 259 266 271 273 278 281 282 282 279 273 269 270 267 262 260 262 269 270 271 284 297 295 297 313 324 323 318 314 312 309 308 311 316 317 320 319 309 307 318 326 336 348 356 1 1 -0 3 7 9 13 17 18 17 10 1 356 357 359 359 1 2 359 357 355 353 351 349 353 354 351 348 346 347
199 122 135 256 257 185 288 339 98 118 95 213 159 180 283 306 310 269 208 211 234 253 254 258 260 264 270 275 278 281 283 285 286 280 271 268 266 264 262 262 267 268 269 279 288 292 298 309 318 318 317 311 299 296 298 303 309 311 315 315 307 303 309 320 333 345 352 359 3 358 356 0 2 5 11 15 17 15 6 358 357 357 357 358 357 356 357 358 0 1 -0 6 8 7 8 3 359
246 171 187 225 215 180 190 155 116 60 2 83 94 37 319 324 332 303 275 227 236 250 259 265 265 263 269 274 273 274 275 280 288 290 282 275 271 268 265 263 265 266 269 277 285 290 293 294 299 305 308 306 291 283 288 296 304 311 316 316 308 301 301 312 326 338 346 351 359 358 353 356 357 359 6 12 16 19 16 8 2 358 356 356 356 356 358 1 5 4 4 7 7 16 24 15 6
315 226 210 192 151 140 123 124 108 72 315 305 86 54 300 312 317 285 315 321 250 247 245 254 263 266 268 269 267 266 267 272 279 288 290 284 276 268 263 261 262 265 267 272 277 272 268 269 276 288 293 293 288 284 286 293 302 311 318 317 308 302 305 312 318 329 340 344 352 356 351 351 354 356 1 8 13 18 19 16 10 4 -0 359 360 -0 4 9 8 2 3 2 359 8 16 9 10
336 249 203 164 126 122 131 140 116 112 237 290 83 122 269 315 321 299 327 321 285 282 253 252 261 264 267 265 261 260 262 265 270 280 291 291 283 267 259 257 258 262 265 265 262 248 240 245 260 270 272 270 272 275 282 288 287 291 299 304 303 302 306 309 312 322 333 339 345 349 347 348 350 354 358 3 10 16 18 18 16 13 9 6 7 9 14 18 16 11 10 8 4 2 -0 359 16
247 236 142 138 138 142 157 155 129 158 187 358 31 104 99 309 289 299 336 324 302 297 273 264 260 259 263 259 254 254 256 259 263 275 289 296 297 280 263 258 256 259 263 256 244 236 234 236 248 254 256 257 258 262 270 274 273 273 276 281 290 297 301 303 308 315 321 330 340 341 340 345 346 351 356 358 6 13 17 20 22 23 22 17 17 18 22 26 27 28 24 19 16 8 3 3 4
246 187 117 136 152 151 163 148 113 78 100 354 315 82 75 281 276 316 1 349 299 280 259 260 254 253 256 252 249 250 251 252 256 268 286 300 309 298 275 261 256 254 253 246 236 232 232 236 246 252 255 253 253 257 258 259 262 263 265 271 278 286 293 297 301 305 307 318 335 335 333 339 343 347 352 354 1 9 14 21 28 36 38 30 24 23 27 32 34 37 36 30 26 21 23 19 7
223 122 93 75 76 90 107 115 99 48 50 252 249 156 122 278 285 327 11 279 268 263 254 253 249 249 249 248 250 250 249 248 250 260 278 297 306 299 277 258 252 249 242 239 236 234 234 240 246 249 250 248 249 256 256 252 253 256 262 267 270 273 278 284 288 292 298 307 326 330 326 332 339 342 346 348 354 4 10 19 29 39 45 40 33 30 33 37 37 40 42 39 36 34 35 30 19
121 94 69 58 44 44 53 51 82 68 339 269 244 167 127 305 284 254 212 219 223 228 261 261 247 246 245 246 250 251 250 246 245 254 265 286 291 283 266 245 239 240 237 238 238 239 241 242 243 240 239 241 245 252 254 251 250 251 257 259 263 265 266 270 274 278 287 293 310 321 320 328 337 341 343 343 346 357 7 15 23 32 41 43 41 39 42 43 43 44 44 44 45 43 37 29 27
114 85 75 94 30 22 42 1 43 91 281 279 265 142 116 174 269 251 249 249 219 185 225 243 238 239 239 243 250 252 252 247 242 247 253 268 277 275 268 245 232 231 233 238 239 240 241 239 239 236 235 243 246 248 251 252 252 254 256 257 261 263 260 262 264 267 275 281 293 309 316 325 335 341 345 342 340 348 0 10 18 24 32 39 40 40 42 47 51 52 49 46 46 46 41 35 36
76 62 69 90 20 15 36 335 28 180 264 286 263 119 121 225 246 261 272 270 251 225 233 252 255 247 240 242 249 252 253 248 241 240 247 260 267 273 278 258 233 226 228 235 238 240 240 237 239 241 242 246 247 250 254 255 257 258 259 258 259 260 258 259 261 264 269 271 281 297 310 322 334 341 344 338 334 339 352 4 12 16 24 33 37 37 38 42 50 55 54 49 46 45 43 39 37
40 78 90 89 82 61 324 282 334 282 267 282 261 216 245 273 261 253 267 281 274 255 254 264 271 268 255 248 251 253 253 248 239 236 242 255 261 266 274 252 224 216 217 223 227 235 241 239 242 249 250 249 252 261 266 266 266 263 260 257 255 257 259 260 261 263 265 266 274 288 298 313 326 334 338 331 322 322 336 357 7 10 15 26 34 35 33 35 40 46 50 49 44 42 40 38 36
42 148 127 118 143 133 203 230 199 251 245 288 304 286 170 223 273 269 275 295 302 263 253 260 263 272 269 257 256 255 254 246 235 231 235 248 253 251 251 232 215 213 213 219 223 238 253 250 251 256 257 258 265 272 274 276 275 269 264 261 258 260 261 261 262 264 267 267 271 277 282 293 307 314 320 319 310 300 312 339 -0 5 8 18 29 32 30 30 31 35 41 44 42 38 35 31 28
294 144 84 60 166 135 128 173 171 170 164 339 321 262 209 216 271 298 306 326 31 92 229 247 252 266 271 261 259 258 254 245 230 226 228 236 239 234 230 215 207 216 222 234 250 268 289 287 272 271 269 265 268 272 275 276 274 271 271 268 265 263 263 265 266 267 269 269 269 269 271 274 285 295 303 311 310 298 295 312 339 354 2 10 18 25 29 28 27 30 37 41 41 37 34 29 22
300 60 85 240 153 116 114 152 49 70 90 0 329 295 302 327 291 308 342 14 34 39 334 248 251 265 267 260 260 260 251 238 226 223 222 229 234 230 226 213 209 219 234 256 279 289 301 311 300 293 281 270 272 279 285 284 277 278 280 279 275 271 270 272 272 269 265 264 265 266 266 268 278 289 296 306 310 305 295 295 310 325 344 359 5 15 24 26 23 26 32 35 37 36 32 28 22
79 45 194 207 84 91 110 109 15 37 80 278 349 322 303 -0 208 315 347 342 315 334 332 299 273 260 258 255 256 254 245 231 224 221 220 225 232 231 229 227 225 230 249 267 280 284 288 296 303 305 294 283 289 292 294 295 293 296 296 291 286 280 278 277 275 271 265 262 265 267 267 268 273 282 290 296 299 301 296 290 295 299 308 336 349 359 8 9 9 11 14 19 23 26 28 25 19
97 140 160 117 94 345 24 77 64 39 44 300 324 313 266 195 215 292 306 257 259 282 304 302 268 251 249 247 246 240 232 227 223 219 219 222 227 230 231 233 236 238 250 264 268 268 275 285 293 296 287 275 273 266 266 277 294 310 308 303 299 288 281 278 275 272 269 268 271 271 267 264 267 276 284 285 283 285 284 281 284 287 288 301 319 334 344 346 347 349 349 354 -0 6 15 21 17
37 72 31 28 120 155 66 79 136 136 128 271 312 338 289 227 215 211 232 240 233 239 262 259 246 246 243 239 239 230 223 225 225 220 220 223 223 226 228 231 242 246 253 260 260 261 267 273 272 269 259 247 240 243 253 264 277 292 301 305 306 296 284 275 272 271 275 279 278 273 267 264 269 275 280 282 283 282 274 269 271 275 278 284 288 300 315 324 330 333 334 336 338 343 355 8 11
359 38 21 12 59 111 124 81 68 106 133 180 242 322 273 252 211 192 232 249 226 219 229 233 239 242 240 237 232 226 224 227 229 225 222 224 223 221 224 229 237 246 254 257 255 257 261 265 263 260 254 248 242 244 254 264 270 276 285 295 299 292 278 264 263 277 293 295 286 277 275 272 272 274 277 281 286 287 279 267 264 265 269 273 273 276 287 298 310 320 325 329 326 325 334 349 358
154 119 120 144 132 125 110 55 356 66 103 159 154 246 270 260 207 203 234 245 236 234 228 232 240 239 239 237 223 220 226 230 237 233 227 229 228 223 227 233 239 248 255 257 256 255 257 259 262 261 257 255 251 251 256 264 268 269 273 280 283 276 264 254 259 278 292 294 290 286 282 277 275 274 275 277 281 286 283 269 264 264 264 265 264 265 270 278 291 304 314 322 320 315 318 328 338